Location: D�derode
(51.8092°N, 10.1065°E)
Time: 06:23:20
(UTC+00:00)

CZ-4B R/B - Pass Details

Date: 01 December 2020
Orbit: 389 x 457 km, 97.6° (Epoch: 23 January)

Event Time Altitude Azimuth Distance (km) Brightness Sun altitude
Exits shadow 18:30:07 15° 285° (WNW) 1,222 4.4 -29.5°
Drops below altitude 10° 18:31:26 10° 260° (W) 1,472 4.9 -29.7°
Sets 18:34:01 0° 237° (WSW) 2,342 5.8 -30.1°
